• In Deutschland
  • Länderverzeichnis
  • Für 7 Tage
  • Wassertemperatur
  • Satellitenkarten
  • Wetterkarte
  • Widgets
  • user-avatar
    Anmelden

    Stündliche Wetter Prutz

    Heute, 25 September, Montag

    Zeit Temperatur Niederschläge Wind Luftdruck Luftfeuchtigkeit
    00:00 +5°C° 0 mm 1 m/S 635 mmHg 91%
    01:00 +5°C° 0 mm 1 m/S 634 mmHg 89%
    02:00 +4°C° 0 mm 1 m/S 634 mmHg 88%
    03:00 +4°C° 0 mm 1 m/S 634 mmHg 88%
    04:00 +4°C° 0 mm 1 m/S 634 mmHg 87%
    05:00 +4°C° 0 mm 1 m/S 634 mmHg 85%
    06:00 +4°C° 0 mm 1 m/S 634 mmHg 83%
    07:00 +5°C° 0 mm 1 m/S 635 mmHg 80%
    08:00 +7°C° 0 mm 1 m/S 635 mmHg 72%
    09:00 +9°C° 0 mm 1 m/S 635 mmHg 64%
    10:00 +10°C° 0 mm 0 m/S 636 mmHg 56%
    11:00 +11°C° 0 mm 0 m/S 636 mmHg 54%
    12:00 +13°C° 0 mm 1 m/S 636 mmHg 52%
    13:00 +14°C° 0 mm 1 m/S 636 mmHg 50%
    14:00 +13°C° 0,1 mm 1 m/S 636 mmHg 54%
    15:00 +13°C° 0,1 mm 1 m/S 636 mmHg 57%
    16:00 +12°C° 0,1 mm 1 m/S 636 mmHg 61%
    17:00 +10°C° 0 mm 1 m/S 635 mmHg 70%
    18:00 +8°C° 0 mm 1 m/S 634 mmHg 79%
    19:00 +5°C° 0 mm 0 m/S 634 mmHg 88%
    20:00 +6°C° 0 mm 1 m/S 634 mmHg 88%
    21:00 +5°C° 0 mm 1 m/S 634 mmHg 88%
    22:00 +5°C° 0 mm 1 m/S 635 mmHg 89%
    23:00 +5°C° 0 mm 1 m/S 635 mmHg 89%

    Morgen, 26 September, Dienstag

    Zeit Temperatur Niederschläge Wind Luftdruck Luftfeuchtigkeit
    00:00 +5°C° 0 mm 1 m/S 635 mmHg 89%
    01:00 +5°C° 0 mm 1 m/S 635 mmHg 89%
    02:00 +5°C° 0 mm 1 m/S 635 mmHg 89%
    03:00 +5°C° 0 mm 1 m/S 635 mmHg 89%
    04:00 +4°C° 0 mm 1 m/S 634 mmHg 89%
    05:00 +5°C° 0 mm 1 m/S 635 mmHg 88%
    06:00 +5°C° 0 mm 1 m/S 635 mmHg 87%
    07:00 +5°C° 0 mm 1 m/S 635 mmHg 86%
    08:00 +8°C° 0 mm 1 m/S 636 mmHg 78%
    09:00 +10°C° 0 mm 1 m/S 637 mmHg 69%
    10:00 +11°C° 0 mm 0 m/S 638 mmHg 61%
    11:00 +13°C° 0 mm 1 m/S 638 mmHg 59%
    12:00 +14°C° 0 mm 1 m/S 638 mmHg 57%
    13:00 +14°C° 0 mm 1 m/S 638 mmHg 56%
    14:00 +14°C° 0,3 mm 1 m/S 638 mmHg 60%
    15:00 +13°C° 0,3 mm 1 m/S 637 mmHg 65%
    16:00 +12°C° 0,3 mm 1 m/S 637 mmHg 70%
    17:00 +11°C° 0,2 mm 1 m/S 637 mmHg 77%
    18:00 +9°C° 0,2 mm 1 m/S 637 mmHg 83%
    19:00 +6°C° 0,2 mm 0 m/S 636 mmHg 90%
    20:00 +7°C° 0 mm 1 m/S 636 mmHg 90%
    21:00 +7°C° 0 mm 1 m/S 637 mmHg 89%
    22:00 +6°C° 0 mm 1 m/S 637 mmHg 89%
    23:00 +6°C° 0 mm 1 m/S 637 mmHg 89%

    übermorgen, 27 September, Mittwoch

    Zeit Temperatur Niederschläge Wind Luftdruck Luftfeuchtigkeit
    00:00 +6°C° 0 mm 1 m/S 637 mmHg 89%
    01:00 +6°C° 0 mm 1 m/S 637 mmHg 88%
    02:00 +6°C° 0 mm 1 m/S 637 mmHg 88%
    03:00 +6°C° 0 mm 1 m/S 637 mmHg 88%
    04:00 +6°C° 0 mm 1 m/S 637 mmHg 88%
    05:00 +6°C° 0 mm 1 m/S 637 mmHg 87%
    06:00 +6°C° 0 mm 1 m/S 637 mmHg 87%
    07:00 +6°C° 0 mm 1 m/S 637 mmHg 86%
    08:00 +9°C° 0 mm 1 m/S 638 mmHg 77%
    09:00 +11°C° 0 mm 1 m/S 639 mmHg 69%
    10:00 +13°C° 0 mm 1 m/S 640 mmHg 61%
    11:00 +14°C° 0 mm 1 m/S 640 mmHg 58%
    12:00 +15°C° 0 mm 1 m/S 640 mmHg 56%
    13:00 +15°C° 0 mm 1 m/S 640 mmHg 54%
    14:00 +15°C° 0,2 mm 1 m/S 640 mmHg 57%
    15:00 +15°C° 0,2 mm 1 m/S 639 mmHg 60%
    16:00 +14°C° 0,2 mm 1 m/S 639 mmHg 63%
    17:00 +12°C° 0,1 mm 1 m/S 639 mmHg 71%
    18:00 +10°C° 0,1 mm 1 m/S 638 mmHg 80%
    19:00 +8°C° 0,1 mm 1 m/S 638 mmHg 88%
    20:00 +8°C° 0 mm 1 m/S 638 mmHg 88%
    21:00 +7°C° 0 mm 1 m/S 638 mmHg 88%
    22:00 +6°C° 0 mm 2 m/S 638 mmHg 88%
    23:00 +6°C° 0 mm 2 m/S 638 mmHg 88%

    28 September, Donnerstag

    Zeit Temperatur Niederschläge Wind Luftdruck Luftfeuchtigkeit
    00:00 +6°C° 0 mm 2 m/S 638 mmHg 87%
    01:00 +6°C° 0 mm 2 m/S 638 mmHg 87%
    02:00 +5°C° 0 mm 2 m/S 638 mmHg 87%
    03:00 +5°C° 0 mm 2 m/S 638 mmHg 87%
    04:00 +6°C° 0 mm 1 m/S 638 mmHg 86%
    05:00 +6°C° 0 mm 1 m/S 638 mmHg 85%
    06:00 +7°C° 0 mm 1 m/S 638 mmHg 84%
    07:00 +7°C° 0 mm 1 m/S 638 mmHg 83%
    08:00 +9°C° 0 mm 1 m/S 639 mmHg 74%
    09:00 +12°C° 0 mm 1 m/S 640 mmHg 65%
    10:00 +15°C° 0 mm 1 m/S 641 mmHg 56%
    11:00 +15°C° 0 mm 1 m/S 641 mmHg 55%
    12:00 +16°C° 0 mm 1 m/S 641 mmHg 53%
    13:00 +16°C° 0 mm 1 m/S 641 mmHg 51%
    14:00 +16°C° 0,1 mm 1 m/S 641 mmHg 57%
    15:00 +15°C° 0,1 mm 1 m/S 640 mmHg 62%
    16:00 +14°C° 0,1 mm 1 m/S 640 mmHg 67%
    17:00 +13°C° 0,3 mm 1 m/S 639 mmHg 75%
    18:00 +11°C° 0,3 mm 1 m/S 639 mmHg 83%
    19:00 +9°C° 0,3 mm 1 m/S 639 mmHg 91%
    20:00 +9°C° 0,3 mm 1 m/S 639 mmHg 91%
    21:00 +9°C° 0,3 mm 1 m/S 639 mmHg 91%
    22:00 +9°C° 0,3 mm 1 m/S 639 mmHg 92%
    23:00 +9°C° 0,2 mm 1 m/S 639 mmHg 92%

    29 September, Freitag

    Zeit Temperatur Niederschläge Wind Luftdruck Luftfeuchtigkeit
    00:00 +8°C° 0,2 mm 1 m/S 639 mmHg 92%
    01:00 +8°C° 0,2 mm 1 m/S 638 mmHg 92%
    02:00 +8°C° 0,1 mm 1 m/S 638 mmHg 92%
    03:00 +7°C° 0,1 mm 1 m/S 638 mmHg 92%
    04:00 +7°C° 0,1 mm 1 m/S 638 mmHg 92%
    05:00 +7°C° 0 mm 1 m/S 638 mmHg 92%
    06:00 +7°C° 0 mm 1 m/S 638 mmHg 91%
    07:00 +7°C° 0 mm 1 m/S 638 mmHg 91%
    08:00 +9°C° 0 mm 1 m/S 638 mmHg 81%
    09:00 +12°C° 0 mm 1 m/S 639 mmHg 72%
    10:00 +14°C° 0 mm 1 m/S 640 mmHg 62%
    11:00 +15°C° 0 mm 1 m/S 640 mmHg 59%
    12:00 +15°C° 0 mm 1 m/S 640 mmHg 56%
    13:00 +16°C° 0 mm 2 m/S 640 mmHg 53%
    14:00 +15°C° 0 mm 2 m/S 639 mmHg 56%
    15:00 +15°C° 0 mm 2 m/S 639 mmHg 59%
    16:00 +15°C° 0 mm 2 m/S 639 mmHg 61%
    17:00 +12°C° 0 mm 1 m/S 638 mmHg 71%
    18:00 +10°C° 0 mm 1 m/S 637 mmHg 81%
    19:00 +8°C° 0 mm 1 m/S 637 mmHg 90%
    20:00 +8°C° 0 mm 1 m/S 637 mmHg 91%
    21:00 +7°C° 0 mm 1 m/S 637 mmHg 92%
    22:00 +7°C° 0 mm 1 m/S 637 mmHg 93%
    23:00 +7°C° 0 mm 1 m/S 636 mmHg 92%

    30 September, Samstag

    Zeit Temperatur Niederschläge Wind Luftdruck Luftfeuchtigkeit
    00:00 +7°C° 0 mm 1 m/S 636 mmHg 92%
    01:00 +7°C° 0 mm 1 m/S 636 mmHg 92%
    02:00 +6°C° 0 mm 1 m/S 636 mmHg 92%
    03:00 +6°C° 0 mm 1 m/S 635 mmHg 92%
    04:00 +6°C° 0 mm 1 m/S 635 mmHg 92%
    05:00 +6°C° 0 mm 1 m/S 635 mmHg 92%
    06:00 +7°C° 0 mm 1 m/S 635 mmHg 91%
    07:00 +7°C° 0 mm 1 m/S 635 mmHg 91%
    08:00 +9°C° 0 mm 1 m/S 636 mmHg 81%
    09:00 +11°C° 0 mm 1 m/S 636 mmHg 72%
    10:00 +14°C° 0 mm 1 m/S 637 mmHg 62%
    11:00 +14°C° 0 mm 1 m/S 637 mmHg 60%
    12:00 +15°C° 0 mm 2 m/S 637 mmHg 59%
    13:00 +15°C° 0 mm 2 m/S 636 mmHg 57%
    14:00 +14°C° 0,3 mm 2 m/S 636 mmHg 62%
    15:00 +14°C° 0,3 mm 2 m/S 635 mmHg 66%
    16:00 +13°C° 0,3 mm 2 m/S 635 mmHg 70%
    17:00 +12°C° 0,2 mm 1 m/S 635 mmHg 78%
    18:00 +10°C° 0,2 mm 1 m/S 634 mmHg 86%
    19:00 +9°C° 0,2 mm 1 m/S 634 mmHg 94%
    20:00 +8°C° 0 mm 1 m/S 634 mmHg 94%
    21:00 +8°C° 0 mm 1 m/S 634 mmHg 95%
    22:00 +8°C° 0 mm 1 m/S 634 mmHg 95%
    23:00 +7°C° 0 mm 0 m/S 633 mmHg 95%
    Mehr zeigen